Stündliche Wetter Otola

Heute, 14 April, Mittwoch

Zeit Temperatur Niederschläge Wind Luftdruck Luftfeuchtigkeit
00:00 -1°C° 0.6 mm 5 m/S 739 mmHg 95%
01:00 -1°C° 0 mm 5 m/S 739 mmHg 95%
02:00 -1°C° 0.9 mm 4 m/S 739 mmHg 96%
03:00 -2°C° 0.9 mm 4 m/S 739 mmHg 97%
04:00 -2°C° 0.9 mm 4 m/S 739 mmHg 98%
05:00 -2°C° 0.8 mm 4 m/S 739 mmHg 98%
06:00 -2°C° 0.8 mm 4 m/S 739 mmHg 98%
07:00 -2°C° 0.8 mm 5 m/S 739 mmHg 99%
08:00 -1°C° 0.4 mm 5 m/S 739 mmHg 97%
09:00 -1°C° 0.4 mm 5 m/S 739 mmHg 96%
10:00 -2°C° 0.4 mm 6 m/S 739 mmHg 95%
11:00 -2°C° 0.2 mm 6 m/S 739 mmHg 93%
12:00 -1°C° 0.2 mm 6 m/S 739 mmHg 91%
13:00 -1°C° 0.2 mm 6 m/S 739 mmHg 90%
14:00 0°C° 0.2 mm 5 m/S 739 mmHg 90%
15:00 0°C° 0.2 mm 5 m/S 739 mmHg 89%
16:00 0°C° 0.2 mm 5 m/S 738 mmHg 89%
17:00 0°C° 0.1 mm 5 m/S 738 mmHg 91%
18:00 0°C° 0.1 mm 4 m/S 739 mmHg 94%
19:00 -1°C° 0.1 mm 4 m/S 739 mmHg 96%
20:00 -1°C° 0.3 mm 4 m/S 738 mmHg 96%
21:00 -1°C° 0.3 mm 4 m/S 738 mmHg 97%
22:00 -1°C° 0.3 mm 4 m/S 738 mmHg 98%
23:00 -1°C° 0.4 mm 5 m/S 738 mmHg 98%

Morgen, 15 April, Donnerstag

Zeit Temperatur Niederschläge Wind Luftdruck Luftfeuchtigkeit
00:00 -1°C° 0.4 mm 5 m/S 738 mmHg 97%
01:00 -1°C° 0.4 mm 5 m/S 738 mmHg 97%
02:00 -1°C° 0.5 mm 5 m/S 738 mmHg 98%
03:00 -2°C° 0.5 mm 5 m/S 737 mmHg 98%
04:00 -2°C° 0.5 mm 5 m/S 737 mmHg 98%
05:00 -2°C° 0.6 mm 5 m/S 737 mmHg 98%
06:00 -2°C° 0.6 mm 5 m/S 737 mmHg 98%
07:00 -2°C° 0.6 mm 5 m/S 737 mmHg 98%
08:00 -2°C° 0.6 mm 5 m/S 737 mmHg 98%
09:00 -2°C° 0.6 mm 5 m/S 737 mmHg 99%
10:00 -1°C° 0.6 mm 5 m/S 737 mmHg 99%
11:00 -1°C° 0.4 mm 5 m/S 737 mmHg 99%
12:00 -1°C° 0.4 mm 4 m/S 737 mmHg 99%
13:00 -1°C° 0.4 mm 4 m/S 737 mmHg 99%
14:00 -1°C° 0.2 mm 4 m/S 737 mmHg 99%
15:00 -1°C° 0.2 mm 4 m/S 737 mmHg 99%
16:00 -1°C° 0.2 mm 4 m/S 737 mmHg 99%
17:00 -1°C° 0.1 mm 4 m/S 737 mmHg 98%
18:00 -2°C° 0.1 mm 4 m/S 737 mmHg 98%
19:00 -2°C° 0.1 mm 4 m/S 737 mmHg 98%
20:00 -1°C° 0.1 mm 3 m/S 737 mmHg 98%
21:00 -1°C° 0.1 mm 3 m/S 737 mmHg 98%
22:00 -1°C° 0.1 mm 3 m/S 737 mmHg 98%
23:00 -1°C° 0 mm 3 m/S 737 mmHg 98%

übermorgen, 16 April, Freitag

Zeit Temperatur Niederschläge Wind Luftdruck Luftfeuchtigkeit
00:00 -1°C° 0 mm 3 m/S 737 mmHg 98%
01:00 -1°C° 0 mm 3 m/S 737 mmHg 98%
02:00 -1°C° 0 mm 3 m/S 737 mmHg 98%
03:00 -1°C° 0 mm 3 m/S 737 mmHg 98%
04:00 0°C° 0 mm 3 m/S 737 mmHg 98%
05:00 0°C° 0.1 mm 3 m/S 737 mmHg 98%
06:00 0°C° 0.1 mm 3 m/S 737 mmHg 99%
07:00 0°C° 0.1 mm 3 m/S 737 mmHg 99%
08:00 0°C° 0 mm 3 m/S 737 mmHg 99%
09:00 0°C° 0 mm 3 m/S 737 mmHg 99%
10:00 0°C° 0 mm 3 m/S 738 mmHg 99%
11:00 0°C° 0 mm 3 m/S 738 mmHg 99%
12:00 -1°C° 0 mm 4 m/S 738 mmHg 99%
13:00 0°C° 0 mm 4 m/S 738 mmHg 99%
14:00 +1°C° 0 mm 3 m/S 738 mmHg 99%
15:00 +1°C° 0 mm 3 m/S 738 mmHg 99%
16:00 +1°C° 0 mm 3 m/S 738 mmHg 99%
17:00 +1°C° 0 mm 3 m/S 738 mmHg 99%
18:00 +1°C° 0 mm 3 m/S 738 mmHg 99%
19:00 +1°C° 0 mm 3 m/S 739 mmHg 99%
20:00 +1°C° 0.1 mm 3 m/S 739 mmHg 99%
21:00 +1°C° 0.1 mm 3 m/S 739 mmHg 99%
22:00 +1°C° 0.1 mm 3 m/S 739 mmHg 99%
23:00 +1°C° 0.1 mm 3 m/S 738 mmHg 99%

17 April, Samstag

Zeit Temperatur Niederschläge Wind Luftdruck Luftfeuchtigkeit
00:00 +1°C° 0.1 mm 3 m/S 738 mmHg 99%
01:00 +1°C° 0.1 mm 3 m/S 738 mmHg 99%
02:00 +1°C° 0.1 mm 3 m/S 738 mmHg 99%
03:00 +1°C° 0.1 mm 3 m/S 738 mmHg 99%
04:00 +1°C° 0.1 mm 3 m/S 738 mmHg 99%
05:00 +1°C° 0.2 mm 3 m/S 738 mmHg 99%
06:00 +1°C° 0.2 mm 3 m/S 738 mmHg 98%
07:00 +1°C° 0.2 mm 3 m/S 738 mmHg 98%
08:00 +1°C° 0.2 mm 3 m/S 738 mmHg 98%
09:00 +2°C° 0.2 mm 3 m/S 738 mmHg 98%
10:00 +2°C° 0.2 mm 3 m/S 738 mmHg 98%
11:00 +2°C° 0.2 mm 3 m/S 738 mmHg 98%
12:00 +2°C° 0.2 mm 3 m/S 738 mmHg 98%
13:00 +3°C° 0.2 mm 3 m/S 738 mmHg 98%
14:00 +4°C° 0.1 mm 2 m/S 738 mmHg 98%
15:00 +4°C° 0.1 mm 2 m/S 738 mmHg 98%
16:00 +4°C° 0.1 mm 2 m/S 738 mmHg 98%
17:00 +5°C° 0 mm 1 m/S 738 mmHg 99%
18:00 +5°C° 0 mm 1 m/S 738 mmHg 99%
19:00 +5°C° 0 mm 1 m/S 738 mmHg 99%
20:00 +5°C° 0 mm 1 m/S 738 mmHg 99%
21:00 +5°C° 0 mm 1 m/S 738 mmHg 99%
22:00 +5°C° 0 mm 1 m/S 738 mmHg 99%
23:00 +4°C° 0 mm 0 m/S 738 mmHg 99%

18 April, Sonntag

Zeit Temperatur Niederschläge Wind Luftdruck Luftfeuchtigkeit
00:00 +4°C° 0 mm 0 m/S 738 mmHg 98%
01:00 +4°C° 0 mm 0 m/S 737 mmHg 98%
02:00 +4°C° 0 mm 0 m/S 737 mmHg 98%
03:00 +4°C° 0 mm 0 m/S 737 mmHg 98%
04:00 +4°C° 0 mm 0 m/S 737 mmHg 98%
05:00 +4°C° 0 mm 0 m/S 737 mmHg 98%
06:00 +6°C° 0 mm 1 m/S 737 mmHg 97%
07:00 +6°C° 0 mm 1 m/S 737 mmHg 96%
08:00 +7°C° 0 mm 1 m/S 738 mmHg 92%
09:00 +6°C° 0 mm 2 m/S 738 mmHg 88%
10:00 +7°C° 0 mm 2 m/S 738 mmHg 84%
11:00 +8°C° 0 mm 2 m/S 738 mmHg 77%
12:00 +10°C° 0 mm 3 m/S 737 mmHg 70%
13:00 +11°C° 0 mm 3 m/S 737 mmHg 63%
14:00 +11°C° 0.1 mm 3 m/S 737 mmHg 65%
15:00 +10°C° 0.1 mm 3 m/S 737 mmHg 68%
16:00 +10°C° 0.1 mm 3 m/S 737 mmHg 70%
17:00 +9°C° 0.1 mm 3 m/S 737 mmHg 76%
18:00 +8°C° 0.1 mm 3 m/S 737 mmHg 82%
19:00 +7°C° 0.1 mm 3 m/S 738 mmHg 87%
20:00 +7°C° 0.1 mm 3 m/S 737 mmHg 89%
21:00 +7°C° 0.1 mm 3 m/S 737 mmHg 90%
22:00 +7°C° 0.1 mm 3 m/S 737 mmHg 92%
23:00 +5°C° 0.1 mm 3 m/S 737 mmHg 92%

19 April, Montag

Zeit Temperatur Niederschläge Wind Luftdruck Luftfeuchtigkeit
00:00 +5°C° 0.1 mm 3 m/S 737 mmHg 92%
01:00 +5°C° 0.1 mm 3 m/S 737 mmHg 93%
02:00 +5°C° 0.3 mm 3 m/S 737 mmHg 94%
03:00 +5°C° 0.3 mm 3 m/S 736 mmHg 95%
04:00 +5°C° 0.3 mm 3 m/S 736 mmHg 96%
05:00 +5°C° 0.2 mm 3 m/S 736 mmHg 96%
06:00 +5°C° 0.2 mm 3 m/S 736 mmHg 96%
07:00 +5°C° 0.2 mm 3 m/S 736 mmHg 96%
08:00 +7°C° 0.2 mm 3 m/S 736 mmHg 93%
09:00 +7°C° 0.2 mm 3 m/S 736 mmHg 91%
10:00 +8°C° 0.2 mm 3 m/S 736 mmHg 88%
11:00 +8°C° 0.1 mm 3 m/S 736 mmHg 84%
12:00 +9°C° 0.1 mm 3 m/S 736 mmHg 80%
13:00 +10°C° 0.1 mm 3 m/S 735 mmHg 76%
14:00 +10°C° 0.2 mm 3 m/S 735 mmHg 77%
15:00 +10°C° 0.2 mm 3 m/S 735 mmHg 77%
16:00 +10°C° 0.2 mm 3 m/S 735 mmHg 78%
17:00 +9°C° 0.1 mm 3 m/S 735 mmHg 82%
18:00 +9°C° 0.1 mm 3 m/S 735 mmHg 86%
19:00 +8°C° 0.1 mm 3 m/S 735 mmHg 90%
20:00 +8°C° 0 mm 3 m/S 735 mmHg 92%
21:00 +7°C° 0 mm 3 m/S 734 mmHg 93%
22:00 +7°C° 0 mm 3 m/S 734 mmHg 95%
23:00 +7°C° 0 mm 3 m/S 734 mmHg 94%
Mehr zeigen

Wir brauchen deine Erlaubnis

Meteoprog und unser Service Anbieter werden persönliche Daten aufbewahren, so wie Cookies, Geräte Bezeichnung oder ähnliche Technologien von deinem Gerät und Prozess, so wie Persönliche Daten Inhalte und Werbungen, genauso wie social Media und den Verkehr zu analysieren.

  • Aufbewahrung und/oder Zugang zu deiner Geräte Informationen.

    Cookies, Geräte Bezeichnung oder andere Informationen, können aufbewahrt oder Zugang zu deinem Gerät erhalten, für den Grund, der oben angegeben wird.

  • Personalisierte Werbung und Inhalte, Messungen, Einblick in das Publikum und Produkt Entwicklung.

    Werbungen und Inhalte können personalisiert werden, basierend auf ein Profil. Mehr Daten können besser personalisierte Werbungen und Inhalte hinzufügen. Werbung und Inhalte können gezeigt und gemessen werden. Einblicke über das Publikum, welche die Werbung gesehen haben und den Inhalt, können abgeleitet werden. So wie Daten können genutzt werden, um es zu verbessern oder die Benutzer Erfahrung zu verbessern das System und die Software.

Wenn du “Ich stimme zu” klickst, erlaubst du uns, die Cookies zu benutzen die Geräte Bezeichnung, den Web oder ähnliche Technologien zu benutzen. Deine Settings, können in deinem Gerät bei deinem Browser geändert werden.

Für den bestimmten Zweck, berechtigten Interessen beruhen darauf, mehr als auf den Inhalt. Du kannst mehr darüber in unseren Privaten und Cookie Politik lesen.